Regional Weather Roundup
Issued by NWS

Home | Current Version | Previous Version | Text Only | Print | Product List | Glossary On
Versions: 1 2 3 4 5 6 7 8 9 10 11 12 13 14 15 16 17 18 19 20 21 22 23 24 25 26 27 28 29 30 31 32 33 34 35 36 37 38 39 40 41 42 43 44 45 46 47 48 49 50
000
ASUS43 KDTX 051210
RWRMI
MICHIGAN HOURLY REGIONAL WEATHER ROUNDUP
NATIONAL WEATHER SERVICE DETROIT/PONTIAC MI
800 AM EDT WED AUG 05 2015

NOTE: "FAIR" INDICATES FEW OR NO CLOUDS BELOW 12,000 FEET WITH NO
SIGNIFICANT WEATHER AND/OR OBSTRUCTION TO VISIBILITY.

MIZ047>049-052>055-059>063-066>070-074>076-081>083-051300-
SOUTHEAST LOWER MICHIGAN

CITY           SKY/WX    TMP DP  RH WIND       PRES   REMARKS
ADRIAN         SUNNY     60  56  86 CALM      30.07R
6HR MIN TEMP:  54; 6HR MAX TEMP:  61;

ALMA           SUNNY     57  57  99 CALM      30.08R
ANN ARBOR      SUNNY     63  55  75 N6        30.05R
BAD AXE        SUNNY     59  55  86 NW7       30.05S
6HR MIN TEMP:  54; 6HR MAX TEMP:  59;

DETROIT CITY   SUNNY     64  55  72 NW3       30.04R
6HR MIN TEMP:  61; 6HR MAX TEMP:  67;

DETROIT        MOSUNNY   64  56  75 CALM      30.05R
6HR MIN TEMP:  58; 6HR MAX TEMP:  64;

FLINT          SUNNY     62  55  77 CALM      30.06R
6HR MIN TEMP:  57; 6HR MAX TEMP:  62;

GROSSE ILE     SUNNY     64  57  77 NW6       30.04R
HILLSDALE      SUNNY     60  60  98 CALM      30.08R
6HR MIN TEMP:  54; 6HR MAX TEMP:  60;

HOWELL         SUNNY     59  55  88 N5        30.06R
6HR MIN TEMP:  53; 6HR MAX TEMP:  59;


CITY           SKY/WX    TMP DP  RH WIND       PRES   REMARKS
JACKSON        SUNNY     59  56  89 CALM      30.07R
6HR MIN TEMP:  52; 6HR MAX TEMP:  59;

LAMBERTVILLE   SUNNY     62  58  86 CALM      30.06R
6HR MIN TEMP:  56; 6HR MAX TEMP:  63;

LANSING        MOSUNNY   60  55  83 CALM      30.07R
6HR MIN TEMP:  56; 6HR MAX TEMP:  60;

LAPEER         NOT AVBL
MASON          SUNNY     55  54  97 CALM      30.07R
MONROE         SUNNY     61  57  87 CALM      30.05R
6HR MIN TEMP:  55; 6HR MAX TEMP:  61;

MT. CLEMENS    MOSUNNY   62  58  85 NW6       30.02R
6HR MIN TEMP:  58; 6HR MAX TEMP:  62;

PONTIAC        MOSUNNY   61  56  83 N8        30.04R
6HR MIN TEMP:  59; 6HR MAX TEMP:  63;

PORT HOPE        N/A     61  53  75 NW12      30.02R
6HR MIN TEMP:  57; 6HR MAX TEMP:  64;

PORT HURON     SUNNY     59  59 100 NW5       30.04R
TRI CITIES     MOSUNNY   59  54  83 N10       30.07S
6HR MIN TEMP:  57; 6HR MAX TEMP:  62;

YPSILANTI      SUNNY     64  57  78 NW5       30.06R
6HR MIN TEMP:  57; 6HR MAX TEMP:  64;

$$
MIZ043>046-050>051-056>058-064>065-071>073-077>080-051300-
SOUTHWEST LOWER MICHIGAN

CITY           SKY/WX    TMP DP  RH WIND       PRES   REMARKS
BATTLE CREEK   SUNNY     63  61  93 S3        30.07R
BENTON HARBOR  SUNNY     59  57  93 CALM      30.06R
6HR MIN TEMP:  55; 6HR MAX TEMP:  59;

BIG RAPIDS     SUNNY     56  55  95 CALM      30.07R
6HR MIN TEMP:  51; 6HR MAX TEMP:  56;

COLDWATER      SUNNY     57  56  97 CALM      30.08R
6HR MIN TEMP:  54; 6HR MAX TEMP:  57;

HOLLAND        SUNNY     61  58  90 E3        30.06R
6HR MIN TEMP:  56; 6HR MAX TEMP:  62;

GRAND RAPIDS   MOSUNNY   60  57  89 CALM      30.07R
6HR MIN TEMP:  57; 6HR MAX TEMP:  62;

KALAMAZOO      SUNNY     59  56  89 CALM      30.07S
6HR MIN TEMP:  55; 6HR MAX TEMP:  60;

MARSHALL       SUNNY     57  55  94 CALM      30.07R
MUSKEGON       MOSUNNY   61  56  83 SE3       30.06R
6HR MIN TEMP:  57; 6HR MAX TEMP:  64;

$$
MIZ016>042-051300-
NORTHERN LOWER MICHIGAN

CITY           SKY/WX    TMP DP  RH WIND       PRES   REMARKS
ALPENA         MOSUNNY   56  52  86 NW7       30.04S
6HR MIN TEMP:  51; 6HR MAX TEMP:  55;

BEAVER ISLAND  SUNNY     59  55  86 NW5       30.07R
6HR MIN TEMP:  57; 6HR MAX TEMP:  59;

BELLAIRE       SUNNY     53  51  93 CALM      30.08R
6HR MIN TEMP:  48; 6HR MAX TEMP:  56;

CADILLAC       SUNNY     55  53  94 CALM      30.08R
CHARLEVOIX     PTSUNNY   60  55  82 NW6       30.09S
6HR MIN TEMP:  58; 6HR MAX TEMP:  60;

FRANKFORT      SUNNY     55  54  95 CALM      30.08S
GAYLORD        PTSUNNY   55  53  93 W5        30.07R
6HR MIN TEMP:  51; 6HR MAX TEMP:  57;

GRAYLING       SUNNY     53  51  91 CALM      30.07S
HARBOR SPRINGS SUNNY     56  53  89 CALM      30.06S
HOUGHTON LAKE  SUNNY     55  51  86 W5        30.08R
6HR MIN TEMP:  50; 6HR MAX TEMP:  56;

MANISTEE       PTSUNNY   54  50  87 CALM      30.09R
OSCODA         SUNNY     55  53  93 NW6       30.03S
PELLSTON       SUNNY     56  54  93 W3        30.06R
6HR MIN TEMP:  43; 6HR MAX TEMP:  56;

TRAVERSE CITY  MOSUNNY   56  51  84 CALM      30.07R
6HR MIN TEMP:  53; 6HR MAX TEMP:  60;

$$
MIZ007>008-015-051300-
EASTERN UPPER MICHIGAN

CITY           SKY/WX    TMP DP  RH WIND       PRES   REMARKS
KINROSS        PTSUNNY   48  48 100 CALM      30.05R
6HR MIN TEMP:  46; 6HR MAX TEMP:  52;

MACKINAC ISLAN MOSUNNY   55  51  89 N5        30.05S
6HR MIN TEMP:  51; 6HR MAX TEMP:  55;

NEWBERRY       PTSUNNY   51  51  97 NW3       30.06S
6HR MIN TEMP:  45; 6HR MAX TEMP:  51;

S. S. MARIE    SUNNY     58  54  86 W9        30.04R
6HR MIN TEMP:  51; 6HR MAX TEMP:  58;

$$
MIZ004>006-011>014-085-051300-
CENTRAL UPPER MICHIGAN

CITY           SKY/WX    TMP DP  RH WIND       PRES   REMARKS
MANISTIQUE     MOSUNNY   51  49  93 NW6       30.07R
6HR MIN TEMP:  49; 6HR MAX TEMP:  51;

ESCANABA       SUNNY     52  48  87 NW5       30.08S
6HR MIN TEMP:  48; 6HR MAX TEMP:  52;

MENOMINEE      PTSUNNY   54  48  82 N5        30.08S
6HR MIN TEMP:  52; 6HR MAX TEMP:  57;

SAWYER-GWINN   SUNNY     46  45  93 CALM      30.09
$$
MIZ001>003-009>011-084-051300-
WESTERN UPPER MICHIGAN

CITY           SKY/WX    TMP DP  RH WIND       PRES   REMARKS
IRON MOUNTAIN  SUNNY     50  47  89 CALM      30.09S
6HR MIN TEMP:  43; 6HR MAX TEMP:  51;

HOUGHTON       SUNNY     55  53  93 NW9       30.08R
6HR MIN TEMP:  51; 6HR MAX TEMP:  55;

COPPER HARBOR    N/A     59  53  80 VRB3      30.06S
6HR MIN TEMP:  56; 6HR MAX TEMP:  59;

IRONWOOD       SUNNY     45  45 100 CALM      30.09S
6HR MIN TEMP:  39; 6HR MAX TEMP:  46;

$$

ABBREVIATIONS USED IN REMARKS
   TC - TEMPERATURE IN CELSIUS
  WCI - WIND CHILL INDEX
   HX - HEAT INDEX
  VSB - VISIBILITY




USA.gov is the U.S. government's official web portal to all federal, state and local government web resources and services.